Index of /20260430/WXO-DD/model_gdps/15km/00/090
Name Last modified Size Description
Parent Directory -
20260430T00Z_MSC_GDPS_AbsoluteVorticity_IsbL-0200_LatLon0.15_PT090H.grib2 2026-04-30 04:30 1.5M
20260430T00Z_MSC_GDPS_AbsoluteVorticity_IsbL-0250_LatLon0.15_PT090H.grib2 2026-04-30 04:30 1.6M
20260430T00Z_MSC_GDPS_AbsoluteVorticity_IsbL-0500_LatLon0.15_PT090H.grib2 2026-04-30 04:30 1.5M
20260430T00Z_MSC_GDPS_AbsoluteVorticity_IsbL-0700_LatLon0.15_PT090H.grib2 2026-04-30 04:30 1.3M
20260430T00Z_MSC_GDPS_AbsoluteVorticity_IsbL-0850_LatLon0.15_PT090H.grib2 2026-04-30 04:30 1.6M
20260430T00Z_MSC_GDPS_AirTemp-Max_AGL-2m_LatLon0.15_PT090H.grib2 2026-04-30 04:30 743K
20260430T00Z_MSC_GDPS_AirTemp-Min_AGL-2m_LatLon0.15_PT090H.grib2 2026-04-30 04:30 791K
20260430T00Z_MSC_GDPS_AirTemp_AGL-120m_LatLon0.15_PT090H.grib2 2026-04-30 04:30 909K
20260430T00Z_MSC_GDPS_AirTemp_AGL-2m_LatLon0.15_PT090H.grib2 2026-04-30 04:30 1.0M
20260430T00Z_MSC_GDPS_AirTemp_AGL-40m_LatLon0.15_PT090H.grib2 2026-04-30 04:30 814K
20260430T00Z_MSC_GDPS_AirTemp_AGL-80m_LatLon0.15_PT090H.grib2 2026-04-30 04:30 802K
20260430T00Z_MSC_GDPS_AirTemp_IsbL-0001_LatLon0.15_PT090H.grib2 2026-04-30 04:30 657K
20260430T00Z_MSC_GDPS_AirTemp_IsbL-0005_LatLon0.15_PT090H.grib2 2026-04-30 04:30 682K
20260430T00Z_MSC_GDPS_AirTemp_IsbL-0010_LatLon0.15_PT090H.grib2 2026-04-30 04:30 693K
20260430T00Z_MSC_GDPS_AirTemp_IsbL-0020_LatLon0.15_PT090H.grib2 2026-04-30 04:30 790K
20260430T00Z_MSC_GDPS_AirTemp_IsbL-0030_LatLon0.15_PT090H.grib2 2026-04-30 04:30 840K
20260430T00Z_MSC_GDPS_AirTemp_IsbL-0050_LatLon0.15_PT090H.grib2 2026-04-30 04:30 815K
20260430T00Z_MSC_GDPS_AirTemp_IsbL-0100_LatLon0.15_PT090H.grib2 2026-04-30 04:30 967K
20260430T00Z_MSC_GDPS_AirTemp_IsbL-0150_LatLon0.15_PT090H.grib2 2026-04-30 04:30 1.0M
20260430T00Z_MSC_GDPS_AirTemp_IsbL-0175_LatLon0.15_PT090H.grib2 2026-04-30 04:30 963K
20260430T00Z_MSC_GDPS_AirTemp_IsbL-0200_LatLon0.15_PT090H.grib2 2026-04-30 04:30 1.0M
20260430T00Z_MSC_GDPS_AirTemp_IsbL-0225_LatLon0.15_PT090H.grib2 2026-04-30 04:30 1.0M
20260430T00Z_MSC_GDPS_AirTemp_IsbL-0250_LatLon0.15_PT090H.grib2 2026-04-30 04:30 1.0M
20260430T00Z_MSC_GDPS_AirTemp_IsbL-0275_LatLon0.15_PT090H.grib2 2026-04-30 04:30 1.0M
20260430T00Z_MSC_GDPS_AirTemp_IsbL-0300_LatLon0.15_PT090H.grib2 2026-04-30 04:30 949K
20260430T00Z_MSC_GDPS_AirTemp_IsbL-0350_LatLon0.15_PT090H.grib2 2026-04-30 04:30 931K
20260430T00Z_MSC_GDPS_AirTemp_IsbL-0400_LatLon0.15_PT090H.grib2 2026-04-30 04:30 944K
20260430T00Z_MSC_GDPS_AirTemp_IsbL-0450_LatLon0.15_PT090H.grib2 2026-04-30 04:30 745K
20260430T00Z_MSC_GDPS_AirTemp_IsbL-0500_LatLon0.15_PT090H.grib2 2026-04-30 04:30 1.0M
20260430T00Z_MSC_GDPS_AirTemp_IsbL-0550_LatLon0.15_PT090H.grib2 2026-04-30 04:30 808K
20260430T00Z_MSC_GDPS_AirTemp_IsbL-0600_LatLon0.15_PT090H.grib2 2026-04-30 04:30 898K
20260430T00Z_MSC_GDPS_AirTemp_IsbL-0650_LatLon0.15_PT090H.grib2 2026-04-30 04:30 923K
20260430T00Z_MSC_GDPS_AirTemp_IsbL-0700_LatLon0.15_PT090H.grib2 2026-04-30 04:30 960K
20260430T00Z_MSC_GDPS_AirTemp_IsbL-0750_LatLon0.15_PT090H.grib2 2026-04-30 04:30 1.0M
20260430T00Z_MSC_GDPS_AirTemp_IsbL-0800_LatLon0.15_PT090H.grib2 2026-04-30 04:30 1.1M
20260430T00Z_MSC_GDPS_AirTemp_IsbL-0850_LatLon0.15_PT090H.grib2 2026-04-30 04:30 1.1M
20260430T00Z_MSC_GDPS_AirTemp_IsbL-0875_LatLon0.15_PT090H.grib2 2026-04-30 04:30 1.2M
20260430T00Z_MSC_GDPS_AirTemp_IsbL-0900_LatLon0.15_PT090H.grib2 2026-04-30 04:30 1.1M
20260430T00Z_MSC_GDPS_AirTemp_IsbL-0925_LatLon0.15_PT090H.grib2 2026-04-30 04:30 1.1M
20260430T00Z_MSC_GDPS_AirTemp_IsbL-0950_LatLon0.15_PT090H.grib2 2026-04-30 04:30 1.1M
20260430T00Z_MSC_GDPS_AirTemp_IsbL-0970_LatLon0.15_PT090H.grib2 2026-04-30 04:30 1.1M
20260430T00Z_MSC_GDPS_AirTemp_IsbL-0985_LatLon0.15_PT090H.grib2 2026-04-30 04:30 1.1M
20260430T00Z_MSC_GDPS_AirTemp_IsbL-1000_LatLon0.15_PT090H.grib2 2026-04-30 04:30 1.1M
20260430T00Z_MSC_GDPS_AirTemp_IsbL-1015_LatLon0.15_PT090H.grib2 2026-04-30 04:30 1.1M
20260430T00Z_MSC_GDPS_Albedo_Sfc_LatLon0.15_PT090H.grib2 2026-04-30 04:30 244K
20260430T00Z_MSC_GDPS_CAPE_Sfc_LatLon0.15_PT090H.grib2 2026-04-30 04:30 3.8M
20260430T00Z_MSC_GDPS_CIN_Sfc_LatLon0.15_PT090H.grib2 2026-04-30 04:30 2.8M
20260430T00Z_MSC_GDPS_CloudWater_EAtm_LatLon0.15_PT090H.grib2 2026-04-30 04:30 535K
20260430T00Z_MSC_GDPS_ConvectivePrecip-Accum_Sfc_LatLon0.15_PT090H.grib2 2026-04-30 04:30 3.3M
20260430T00Z_MSC_GDPS_DewPointDepression_AGL-2m_LatLon0.15_PT090H.grib2 2026-04-30 04:30 766K
20260430T00Z_MSC_GDPS_DewPointDepression_IsbL-0010_LatLon0.15_PT090H.grib2 2026-04-30 04:30 65K
20260430T00Z_MSC_GDPS_DewPointDepression_IsbL-0020_LatLon0.15_PT090H.grib2 2026-04-30 04:30 68K
20260430T00Z_MSC_GDPS_DewPointDepression_IsbL-0030_LatLon0.15_PT090H.grib2 2026-04-30 04:30 84K
20260430T00Z_MSC_GDPS_DewPointDepression_IsbL-0050_LatLon0.15_PT090H.grib2 2026-04-30 04:30 378K
20260430T00Z_MSC_GDPS_DewPointDepression_IsbL-0100_LatLon0.15_PT090H.grib2 2026-04-30 04:30 405K
20260430T00Z_MSC_GDPS_DewPointDepression_IsbL-0150_LatLon0.15_PT090H.grib2 2026-04-30 04:30 468K
20260430T00Z_MSC_GDPS_DewPointDepression_IsbL-0175_LatLon0.15_PT090H.grib2 2026-04-30 04:30 583K
20260430T00Z_MSC_GDPS_DewPointDepression_IsbL-0200_LatLon0.15_PT090H.grib2 2026-04-30 04:30 684K
20260430T00Z_MSC_GDPS_DewPointDepression_IsbL-0225_LatLon0.15_PT090H.grib2 2026-04-30 04:30 780K
20260430T00Z_MSC_GDPS_DewPointDepression_IsbL-0250_LatLon0.15_PT090H.grib2 2026-04-30 04:30 864K
20260430T00Z_MSC_GDPS_DewPointDepression_IsbL-0275_LatLon0.15_PT090H.grib2 2026-04-30 04:30 876K
20260430T00Z_MSC_GDPS_DewPointDepression_IsbL-0300_LatLon0.15_PT090H.grib2 2026-04-30 04:30 914K
20260430T00Z_MSC_GDPS_DewPointDepression_IsbL-0350_LatLon0.15_PT090H.grib2 2026-04-30 04:30 949K
20260430T00Z_MSC_GDPS_DewPointDepression_IsbL-0400_LatLon0.15_PT090H.grib2 2026-04-30 04:30 1.0M
20260430T00Z_MSC_GDPS_DewPointDepression_IsbL-0450_LatLon0.15_PT090H.grib2 2026-04-30 04:30 1.0M
20260430T00Z_MSC_GDPS_DewPointDepression_IsbL-0500_LatLon0.15_PT090H.grib2 2026-04-30 04:30 1.0M
20260430T00Z_MSC_GDPS_DewPointDepression_IsbL-0550_LatLon0.15_PT090H.grib2 2026-04-30 04:30 1.0M
20260430T00Z_MSC_GDPS_DewPointDepression_IsbL-0600_LatLon0.15_PT090H.grib2 2026-04-30 04:30 1.1M
20260430T00Z_MSC_GDPS_DewPointDepression_IsbL-0650_LatLon0.15_PT090H.grib2 2026-04-30 04:30 1.1M
20260430T00Z_MSC_GDPS_DewPointDepression_IsbL-0700_LatLon0.15_PT090H.grib2 2026-04-30 04:30 1.1M
20260430T00Z_MSC_GDPS_DewPointDepression_IsbL-0750_LatLon0.15_PT090H.grib2 2026-04-30 04:30 1.1M
20260430T00Z_MSC_GDPS_DewPointDepression_IsbL-0800_LatLon0.15_PT090H.grib2 2026-04-30 04:30 1.2M
20260430T00Z_MSC_GDPS_DewPointDepression_IsbL-0850_LatLon0.15_PT090H.grib2 2026-04-30 04:30 1.2M
20260430T00Z_MSC_GDPS_DewPointDepression_IsbL-0875_LatLon0.15_PT090H.grib2 2026-04-30 04:30 1.1M
20260430T00Z_MSC_GDPS_DewPointDepression_IsbL-0900_LatLon0.15_PT090H.grib2 2026-04-30 04:30 1.1M
20260430T00Z_MSC_GDPS_DewPointDepression_IsbL-0925_LatLon0.15_PT090H.grib2 2026-04-30 04:30 1.0M
20260430T00Z_MSC_GDPS_DewPointDepression_IsbL-0950_LatLon0.15_PT090H.grib2 2026-04-30 04:30 1.0M
20260430T00Z_MSC_GDPS_DewPointDepression_IsbL-0970_LatLon0.15_PT090H.grib2 2026-04-30 04:30 1.0M
20260430T00Z_MSC_GDPS_DewPointDepression_IsbL-0985_LatLon0.15_PT090H.grib2 2026-04-30 04:30 1.0M
20260430T00Z_MSC_GDPS_DewPointDepression_IsbL-1000_LatLon0.15_PT090H.grib2 2026-04-30 04:30 1.0M
20260430T00Z_MSC_GDPS_DewPointDepression_IsbL-1015_LatLon0.15_PT090H.grib2 2026-04-30 04:30 921K
20260430T00Z_MSC_GDPS_DewPoint_AGL-2m_LatLon0.15_PT090H.grib2 2026-04-30 04:30 611K
20260430T00Z_MSC_GDPS_DownwardLongwaveRadiationFlux-Accum_Sfc_LatLon0.15_PT090H.grib2 2026-04-30 04:30 709K
20260430T00Z_MSC_GDPS_DownwardShortwaveRadiationFlux-Accum_NTAtm_LatLon0.15_PT090H.grib2 2026-04-30 04:30 261K
20260430T00Z_MSC_GDPS_DownwardShortwaveRadiationFlux-Accum_Sfc_LatLon0.15_PT090H.grib2 2026-04-30 04:30 923K
20260430T00Z_MSC_GDPS_FreezingRain-Accum12h_Sfc_LatLon0.15_PT090H.grib2 2026-04-30 04:30 107K
20260430T00Z_MSC_GDPS_FreezingRain-Accum1h_Sfc_LatLon0.15_PT090H.grib2 2026-04-30 04:30 37K
20260430T00Z_MSC_GDPS_FreezingRain-Accum24h_Sfc_LatLon0.15_PT090H.grib2 2026-04-30 04:30 148K
20260430T00Z_MSC_GDPS_FreezingRain-Accum3h_Sfc_LatLon0.15_PT090H.grib2 2026-04-30 04:30 49K
20260430T00Z_MSC_GDPS_FreezingRain-Accum6h_Sfc_LatLon0.15_PT090H.grib2 2026-04-30 04:30 86K
20260430T00Z_MSC_GDPS_FreezingRain-Accum_Sfc_LatLon0.15_PT090H.grib2 2026-04-30 04:30 351K
20260430T00Z_MSC_GDPS_GeopotentialHeight_IsbL-0001_LatLon0.15_PT090H.grib2 2026-04-30 04:30 421K
20260430T00Z_MSC_GDPS_GeopotentialHeight_IsbL-0005_LatLon0.15_PT090H.grib2 2026-04-30 04:30 495K
20260430T00Z_MSC_GDPS_GeopotentialHeight_IsbL-0010_LatLon0.15_PT090H.grib2 2026-04-30 04:30 488K
20260430T00Z_MSC_GDPS_GeopotentialHeight_IsbL-0020_LatLon0.15_PT090H.grib2 2026-04-30 04:30 418K
20260430T00Z_MSC_GDPS_GeopotentialHeight_IsbL-0030_LatLon0.15_PT090H.grib2 2026-04-30 04:30 573K
20260430T00Z_MSC_GDPS_GeopotentialHeight_IsbL-0050_LatLon0.15_PT090H.grib2 2026-04-30 04:30 571K
20260430T00Z_MSC_GDPS_GeopotentialHeight_IsbL-0100_LatLon0.15_PT090H.grib2 2026-04-30 04:30 610K
20260430T00Z_MSC_GDPS_GeopotentialHeight_IsbL-0150_LatLon0.15_PT090H.grib2 2026-04-30 04:30 628K
20260430T00Z_MSC_GDPS_GeopotentialHeight_IsbL-0175_LatLon0.15_PT090H.grib2 2026-04-30 04:30 632K
20260430T00Z_MSC_GDPS_GeopotentialHeight_IsbL-0200_LatLon0.15_PT090H.grib2 2026-04-30 04:30 636K
20260430T00Z_MSC_GDPS_GeopotentialHeight_IsbL-0225_LatLon0.15_PT090H.grib2 2026-04-30 04:30 639K
20260430T00Z_MSC_GDPS_GeopotentialHeight_IsbL-0250_LatLon0.15_PT090H.grib2 2026-04-30 04:30 643K
20260430T00Z_MSC_GDPS_GeopotentialHeight_IsbL-0275_LatLon0.15_PT090H.grib2 2026-04-30 04:30 643K
20260430T00Z_MSC_GDPS_GeopotentialHeight_IsbL-0300_LatLon0.15_PT090H.grib2 2026-04-30 04:30 635K
20260430T00Z_MSC_GDPS_GeopotentialHeight_IsbL-0350_LatLon0.15_PT090H.grib2 2026-04-30 04:30 629K
20260430T00Z_MSC_GDPS_GeopotentialHeight_IsbL-0400_LatLon0.15_PT090H.grib2 2026-04-30 04:30 621K
20260430T00Z_MSC_GDPS_GeopotentialHeight_IsbL-0450_LatLon0.15_PT090H.grib2 2026-04-30 04:30 613K
20260430T00Z_MSC_GDPS_GeopotentialHeight_IsbL-0500_LatLon0.15_PT090H.grib2 2026-04-30 04:30 600K
20260430T00Z_MSC_GDPS_GeopotentialHeight_IsbL-0550_LatLon0.15_PT090H.grib2 2026-04-30 04:30 530K
20260430T00Z_MSC_GDPS_GeopotentialHeight_IsbL-0600_LatLon0.15_PT090H.grib2 2026-04-30 04:30 524K
20260430T00Z_MSC_GDPS_GeopotentialHeight_IsbL-0650_LatLon0.15_PT090H.grib2 2026-04-30 04:30 691K
20260430T00Z_MSC_GDPS_GeopotentialHeight_IsbL-0700_LatLon0.15_PT090H.grib2 2026-04-30 04:30 687K
20260430T00Z_MSC_GDPS_GeopotentialHeight_IsbL-0750_LatLon0.15_PT090H.grib2 2026-04-30 04:30 696K
20260430T00Z_MSC_GDPS_GeopotentialHeight_IsbL-0800_LatLon0.15_PT090H.grib2 2026-04-30 04:30 706K
20260430T00Z_MSC_GDPS_GeopotentialHeight_IsbL-0850_LatLon0.15_PT090H.grib2 2026-04-30 04:30 712K
20260430T00Z_MSC_GDPS_GeopotentialHeight_IsbL-0875_LatLon0.15_PT090H.grib2 2026-04-30 04:30 717K
20260430T00Z_MSC_GDPS_GeopotentialHeight_IsbL-0900_LatLon0.15_PT090H.grib2 2026-04-30 04:30 725K
20260430T00Z_MSC_GDPS_GeopotentialHeight_IsbL-0925_LatLon0.15_PT090H.grib2 2026-04-30 04:30 734K
20260430T00Z_MSC_GDPS_GeopotentialHeight_IsbL-0950_LatLon0.15_PT090H.grib2 2026-04-30 04:30 739K
20260430T00Z_MSC_GDPS_GeopotentialHeight_IsbL-0970_LatLon0.15_PT090H.grib2 2026-04-30 04:30 753K
20260430T00Z_MSC_GDPS_GeopotentialHeight_IsbL-0985_LatLon0.15_PT090H.grib2 2026-04-30 04:30 768K
20260430T00Z_MSC_GDPS_GeopotentialHeight_IsbL-1000_LatLon0.15_PT090H.grib2 2026-04-30 04:30 790K
20260430T00Z_MSC_GDPS_GeopotentialHeight_IsbL-1015_LatLon0.15_PT090H.grib2 2026-04-30 04:30 813K
20260430T00Z_MSC_GDPS_Humidex_Sfc_LatLon0.15_PT090H.grib2 2026-04-30 04:30 5.3M
20260430T00Z_MSC_GDPS_IcePellets-Accum12h_Sfc_LatLon0.15_PT090H.grib2 2026-04-30 04:30 7.6K
20260430T00Z_MSC_GDPS_IcePellets-Accum1h_Sfc_LatLon0.15_PT090H.grib2 2026-04-30 04:30 1.4K
20260430T00Z_MSC_GDPS_IcePellets-Accum24h_Sfc_LatLon0.15_PT090H.grib2 2026-04-30 04:30 12K
20260430T00Z_MSC_GDPS_IcePellets-Accum3h_Sfc_LatLon0.15_PT090H.grib2 2026-04-30 04:30 1.5K
20260430T00Z_MSC_GDPS_IcePellets-Accum6h_Sfc_LatLon0.15_PT090H.grib2 2026-04-30 04:30 5.2K
20260430T00Z_MSC_GDPS_IcePellets-Accum_Sfc_LatLon0.15_PT090H.grib2 2026-04-30 04:30 75K
20260430T00Z_MSC_GDPS_KIndex_Sfc_LatLon0.15_PT090H.grib2 2026-04-30 04:30 6.5M
20260430T00Z_MSC_GDPS_LatentHeatNetFlux_Sfc_LatLon0.15_PT090H.grib2 2026-04-30 04:30 521K
20260430T00Z_MSC_GDPS_LiftedIndex-MU-VT_IsbL-0500_LatLon0.15_PT090H.grib2 2026-04-30 04:30 5.4M
20260430T00Z_MSC_GDPS_NetLongwaveRadiationFlux-Accum_Sfc_LatLon0.15_PT090H.grib2 2026-04-30 04:30 946K
20260430T00Z_MSC_GDPS_NetShortwaveRadiationFlux-Accum_Sfc_LatLon0.15_PT090H.grib2 2026-04-30 04:30 910K
20260430T00Z_MSC_GDPS_O3MixingRatio_Sfc_LatLon0.15_PT090H.grib2 2026-04-30 04:51 1.9M
20260430T00Z_MSC_GDPS_O3_EAtm_LatLon0.15_PT090H.grib2 2026-04-30 04:51 2.4M
20260430T00Z_MSC_GDPS_PlanetaryBoundaryLayerHeight_Sfc_LatLon0.15_PT090H.grib2 2026-04-30 04:30 2.4M
20260430T00Z_MSC_GDPS_Precip-Accum12h_Sfc_LatLon0.15_PT090H.grib2 2026-04-30 04:30 4.0M
20260430T00Z_MSC_GDPS_Precip-Accum1h_Sfc_LatLon0.15_PT090H.grib2 2026-04-30 04:30 3.2M
20260430T00Z_MSC_GDPS_Precip-Accum24h_Sfc_LatLon0.15_PT090H.grib2 2026-04-30 04:30 4.5M
20260430T00Z_MSC_GDPS_Precip-Accum3h_Sfc_LatLon0.15_PT090H.grib2 2026-04-30 04:30 3.5M
20260430T00Z_MSC_GDPS_Precip-Accum6h_Sfc_LatLon0.15_PT090H.grib2 2026-04-30 04:30 3.8M
20260430T00Z_MSC_GDPS_Precip-Accum_Sfc_LatLon0.15_PT090H.grib2 2026-04-30 04:30 5.3M
20260430T00Z_MSC_GDPS_PrecipRate_Sfc_LatLon0.15_PT090H.grib2 2026-04-30 04:30 3.1M
20260430T00Z_MSC_GDPS_PrecipType-Instant_Sfc_LatLon0.15_PT090H.grib2 2026-04-30 04:30 1.6M
20260430T00Z_MSC_GDPS_Pressure_MSL_LatLon0.15_PT090H.grib2 2026-04-30 04:30 827K
20260430T00Z_MSC_GDPS_Pressure_PVU-1.5_LatLon0.15_PT090H.grib2 2026-04-30 04:30 5.8M
20260430T00Z_MSC_GDPS_Pressure_PVU-1_LatLon0.15_PT090H.grib2 2026-04-30 04:30 6.0M
20260430T00Z_MSC_GDPS_Pressure_PVU-2_LatLon0.15_PT090H.grib2 2026-04-30 04:30 5.6M
20260430T00Z_MSC_GDPS_Pressure_Sfc_LatLon0.15_PT090H.grib2 2026-04-30 04:30 1.1M
20260430T00Z_MSC_GDPS_RadiativeTemp_Sfc_LatLon0.15_PT090H.grib2 2026-04-30 04:30 663K
20260430T00Z_MSC_GDPS_Rain-Accum12h_Sfc_LatLon0.15_PT090H.grib2 2026-04-30 04:30 2.7M
20260430T00Z_MSC_GDPS_Rain-Accum1h_Sfc_LatLon0.15_PT090H.grib2 2026-04-30 04:30 1.7M
20260430T00Z_MSC_GDPS_Rain-Accum24h_Sfc_LatLon0.15_PT090H.grib2 2026-04-30 04:30 3.2M
20260430T00Z_MSC_GDPS_Rain-Accum3h_Sfc_LatLon0.15_PT090H.grib2 2026-04-30 04:30 1.7M
20260430T00Z_MSC_GDPS_Rain-Accum6h_Sfc_LatLon0.15_PT090H.grib2 2026-04-30 04:30 2.4M
20260430T00Z_MSC_GDPS_Rain-Accum_Sfc_LatLon0.15_PT090H.grib2 2026-04-30 04:30 4.0M
20260430T00Z_MSC_GDPS_RelativeHumidity_AGL-2m_LatLon0.15_PT090H.grib2 2026-04-30 04:30 1.1M
20260430T00Z_MSC_GDPS_RelativeHumidity_IsbL-0010_LatLon0.15_PT090H.grib2 2026-04-30 04:30 196K
20260430T00Z_MSC_GDPS_RelativeHumidity_IsbL-0020_LatLon0.15_PT090H.grib2 2026-04-30 04:30 164K
20260430T00Z_MSC_GDPS_RelativeHumidity_IsbL-0030_LatLon0.15_PT090H.grib2 2026-04-30 04:30 268K
20260430T00Z_MSC_GDPS_RelativeHumidity_IsbL-0050_LatLon0.15_PT090H.grib2 2026-04-30 04:30 425K
20260430T00Z_MSC_GDPS_RelativeHumidity_IsbL-0100_LatLon0.15_PT090H.grib2 2026-04-30 04:30 507K
20260430T00Z_MSC_GDPS_RelativeHumidity_IsbL-0150_LatLon0.15_PT090H.grib2 2026-04-30 04:30 665K
20260430T00Z_MSC_GDPS_RelativeHumidity_IsbL-0175_LatLon0.15_PT090H.grib2 2026-04-30 04:30 592K
20260430T00Z_MSC_GDPS_RelativeHumidity_IsbL-0200_LatLon0.15_PT090H.grib2 2026-04-30 04:30 708K
20260430T00Z_MSC_GDPS_RelativeHumidity_IsbL-0225_LatLon0.15_PT090H.grib2 2026-04-30 04:30 795K
20260430T00Z_MSC_GDPS_RelativeHumidity_IsbL-0250_LatLon0.15_PT090H.grib2 2026-04-30 04:30 864K
20260430T00Z_MSC_GDPS_RelativeHumidity_IsbL-0275_LatLon0.15_PT090H.grib2 2026-04-30 04:30 883K
20260430T00Z_MSC_GDPS_RelativeHumidity_IsbL-0300_LatLon0.15_PT090H.grib2 2026-04-30 04:30 923K
20260430T00Z_MSC_GDPS_RelativeHumidity_IsbL-0350_LatLon0.15_PT090H.grib2 2026-04-30 04:30 947K
20260430T00Z_MSC_GDPS_RelativeHumidity_IsbL-0400_LatLon0.15_PT090H.grib2 2026-04-30 04:30 1.0M
20260430T00Z_MSC_GDPS_RelativeHumidity_IsbL-0450_LatLon0.15_PT090H.grib2 2026-04-30 04:30 1.0M
20260430T00Z_MSC_GDPS_RelativeHumidity_IsbL-0500_LatLon0.15_PT090H.grib2 2026-04-30 04:30 1.0M
20260430T00Z_MSC_GDPS_RelativeHumidity_IsbL-0550_LatLon0.15_PT090H.grib2 2026-04-30 04:30 1.0M
20260430T00Z_MSC_GDPS_RelativeHumidity_IsbL-0600_LatLon0.15_PT090H.grib2 2026-04-30 04:30 1.0M
20260430T00Z_MSC_GDPS_RelativeHumidity_IsbL-0650_LatLon0.15_PT090H.grib2 2026-04-30 04:30 1.1M
20260430T00Z_MSC_GDPS_RelativeHumidity_IsbL-0700_LatLon0.15_PT090H.grib2 2026-04-30 04:30 1.1M
20260430T00Z_MSC_GDPS_RelativeHumidity_IsbL-0750_LatLon0.15_PT090H.grib2 2026-04-30 04:30 1.2M
20260430T00Z_MSC_GDPS_RelativeHumidity_IsbL-0800_LatLon0.15_PT090H.grib2 2026-04-30 04:30 1.2M
20260430T00Z_MSC_GDPS_RelativeHumidity_IsbL-0850_LatLon0.15_PT090H.grib2 2026-04-30 04:30 1.3M
20260430T00Z_MSC_GDPS_RelativeHumidity_IsbL-0875_LatLon0.15_PT090H.grib2 2026-04-30 04:30 1.3M
20260430T00Z_MSC_GDPS_RelativeHumidity_IsbL-0900_LatLon0.15_PT090H.grib2 2026-04-30 04:30 1.2M
20260430T00Z_MSC_GDPS_RelativeHumidity_IsbL-0925_LatLon0.15_PT090H.grib2 2026-04-30 04:30 1.2M
20260430T00Z_MSC_GDPS_RelativeHumidity_IsbL-0950_LatLon0.15_PT090H.grib2 2026-04-30 04:30 1.2M
20260430T00Z_MSC_GDPS_RelativeHumidity_IsbL-0970_LatLon0.15_PT090H.grib2 2026-04-30 04:30 1.2M
20260430T00Z_MSC_GDPS_RelativeHumidity_IsbL-0985_LatLon0.15_PT090H.grib2 2026-04-30 04:30 1.2M
20260430T00Z_MSC_GDPS_RelativeHumidity_IsbL-1000_LatLon0.15_PT090H.grib2 2026-04-30 04:30 1.2M
20260430T00Z_MSC_GDPS_RelativeHumidity_IsbL-1015_LatLon0.15_PT090H.grib2 2026-04-30 04:30 1.1M
20260430T00Z_MSC_GDPS_RelativeVorticity_IsbL-0200_LatLon0.15_PT090H.grib2 2026-04-30 04:30 1.5M
20260430T00Z_MSC_GDPS_RelativeVorticity_IsbL-0250_LatLon0.15_PT090H.grib2 2026-04-30 04:30 1.6M
20260430T00Z_MSC_GDPS_RelativeVorticity_IsbL-0500_LatLon0.15_PT090H.grib2 2026-04-30 04:30 1.5M
20260430T00Z_MSC_GDPS_RelativeVorticity_IsbL-0700_LatLon0.15_PT090H.grib2 2026-04-30 04:30 1.6M
20260430T00Z_MSC_GDPS_RelativeVorticity_IsbL-0850_LatLon0.15_PT090H.grib2 2026-04-30 04:30 1.6M
20260430T00Z_MSC_GDPS_Runoff-Accum_Sfc_LatLon0.15_PT090H.grib2 2026-04-30 04:30 125K
20260430T00Z_MSC_GDPS_SensibleHeatNetFlux_Sfc_LatLon0.15_PT090H.grib2 2026-04-30 04:30 632K
20260430T00Z_MSC_GDPS_ShowalterIndex_IsbL-0500_LatLon0.15_PT090H.grib2 2026-04-30 04:30 6.2M
20260430T00Z_MSC_GDPS_Snow-Accum12h_Sfc_LatLon0.15_PT090H.grib2 2026-04-30 04:30 1.4M
20260430T00Z_MSC_GDPS_Snow-Accum1h_Sfc_LatLon0.15_PT090H.grib2 2026-04-30 04:30 1.1M
20260430T00Z_MSC_GDPS_Snow-Accum24h_Sfc_LatLon0.15_PT090H.grib2 2026-04-30 04:30 1.6M
20260430T00Z_MSC_GDPS_Snow-Accum3h_Sfc_LatLon0.15_PT090H.grib2 2026-04-30 04:30 1.1M
20260430T00Z_MSC_GDPS_Snow-Accum6h_Sfc_LatLon0.15_PT090H.grib2 2026-04-30 04:30 1.4M
20260430T00Z_MSC_GDPS_Snow-Accum_Sfc_LatLon0.15_PT090H.grib2 2026-04-30 04:30 2.1M
20260430T00Z_MSC_GDPS_SnowDensity_Sfc_LatLon0.15_PT090H.grib2 2026-04-30 04:30 267K
20260430T00Z_MSC_GDPS_SnowDepth_Sfc_LatLon0.15_PT090H.grib2 2026-04-30 04:30 1.7M
20260430T00Z_MSC_GDPS_SoilTemp_DBS-0to10cm_LatLon0.15_PT090H.grib2 2026-04-30 04:30 510K
20260430T00Z_MSC_GDPS_SoilTemp_Sfc_LatLon0.15_PT090H.grib2 2026-04-30 04:30 579K
20260430T00Z_MSC_GDPS_SoilVolumetricIceContent_Sfc_LatLon0.15_PT090H.grib2 2026-04-30 04:30 198K
20260430T00Z_MSC_GDPS_SoilVolumetricWaterContent_DBS-0to10cm_LatLon0.15_PT090H.grib2 2026-04-30 04:30 588K
20260430T00Z_MSC_GDPS_SoilVolumetricWaterContent_DBS-0to1cm_LatLon0.15_PT090H.grib2 2026-04-30 04:30 653K
20260430T00Z_MSC_GDPS_SpecificHumidity_AGL-120m_LatLon0.15_PT090H.grib2 2026-04-30 04:30 1.1M
20260430T00Z_MSC_GDPS_SpecificHumidity_AGL-2m_LatLon0.15_PT090H.grib2 2026-04-30 04:30 1.2M
20260430T00Z_MSC_GDPS_SpecificHumidity_AGL-40m_LatLon0.15_PT090H.grib2 2026-04-30 04:30 1.1M
20260430T00Z_MSC_GDPS_SpecificHumidity_AGL-80m_LatLon0.15_PT090H.grib2 2026-04-30 04:30 1.1M
20260430T00Z_MSC_GDPS_SpecificHumidity_IsbL-0001_LatLon0.15_PT090H.grib2 2026-04-30 04:30 1.3M
20260430T00Z_MSC_GDPS_SpecificHumidity_IsbL-0005_LatLon0.15_PT090H.grib2 2026-04-30 04:30 1.2M
20260430T00Z_MSC_GDPS_SpecificHumidity_IsbL-0010_LatLon0.15_PT090H.grib2 2026-04-30 04:30 1.3M
20260430T00Z_MSC_GDPS_SpecificHumidity_IsbL-0020_LatLon0.15_PT090H.grib2 2026-04-30 04:30 1.3M
20260430T00Z_MSC_GDPS_SpecificHumidity_IsbL-0030_LatLon0.15_PT090H.grib2 2026-04-30 04:30 1.3M
20260430T00Z_MSC_GDPS_SpecificHumidity_IsbL-0050_LatLon0.15_PT090H.grib2 2026-04-30 04:30 1.3M
20260430T00Z_MSC_GDPS_SpecificHumidity_IsbL-0100_LatLon0.15_PT090H.grib2 2026-04-30 04:30 1.3M
20260430T00Z_MSC_GDPS_SpecificHumidity_IsbL-0150_LatLon0.15_PT090H.grib2 2026-04-30 04:30 1.3M
20260430T00Z_MSC_GDPS_SpecificHumidity_IsbL-0175_LatLon0.15_PT090H.grib2 2026-04-30 04:30 1.3M
20260430T00Z_MSC_GDPS_SpecificHumidity_IsbL-0200_LatLon0.15_PT090H.grib2 2026-04-30 04:30 1.3M
20260430T00Z_MSC_GDPS_SpecificHumidity_IsbL-0225_LatLon0.15_PT090H.grib2 2026-04-30 04:30 1.3M
20260430T00Z_MSC_GDPS_SpecificHumidity_IsbL-0250_LatLon0.15_PT090H.grib2 2026-04-30 04:30 1.4M
20260430T00Z_MSC_GDPS_SpecificHumidity_IsbL-0275_LatLon0.15_PT090H.grib2 2026-04-30 04:30 1.3M
20260430T00Z_MSC_GDPS_SpecificHumidity_IsbL-0300_LatLon0.15_PT090H.grib2 2026-04-30 04:30 1.2M
20260430T00Z_MSC_GDPS_SpecificHumidity_IsbL-0350_LatLon0.15_PT090H.grib2 2026-04-30 04:30 1.2M
20260430T00Z_MSC_GDPS_SpecificHumidity_IsbL-0400_LatLon0.15_PT090H.grib2 2026-04-30 04:30 1.5M
20260430T00Z_MSC_GDPS_SpecificHumidity_IsbL-0450_LatLon0.15_PT090H.grib2 2026-04-30 04:30 1.6M
20260430T00Z_MSC_GDPS_SpecificHumidity_IsbL-0500_LatLon0.15_PT090H.grib2 2026-04-30 04:30 1.4M
20260430T00Z_MSC_GDPS_SpecificHumidity_IsbL-0550_LatLon0.15_PT090H.grib2 2026-04-30 04:30 1.6M
20260430T00Z_MSC_GDPS_SpecificHumidity_IsbL-0600_LatLon0.15_PT090H.grib2 2026-04-30 04:30 1.7M
20260430T00Z_MSC_GDPS_SpecificHumidity_IsbL-0650_LatLon0.15_PT090H.grib2 2026-04-30 04:30 1.5M
20260430T00Z_MSC_GDPS_SpecificHumidity_IsbL-0700_LatLon0.15_PT090H.grib2 2026-04-30 04:30 1.6M
20260430T00Z_MSC_GDPS_SpecificHumidity_IsbL-0750_LatLon0.15_PT090H.grib2 2026-04-30 04:30 1.7M
20260430T00Z_MSC_GDPS_SpecificHumidity_IsbL-0800_LatLon0.15_PT090H.grib2 2026-04-30 04:30 1.8M
20260430T00Z_MSC_GDPS_SpecificHumidity_IsbL-0850_LatLon0.15_PT090H.grib2 2026-04-30 04:30 1.9M
20260430T00Z_MSC_GDPS_SpecificHumidity_IsbL-0875_LatLon0.15_PT090H.grib2 2026-04-30 04:30 1.9M
20260430T00Z_MSC_GDPS_SpecificHumidity_IsbL-0900_LatLon0.15_PT090H.grib2 2026-04-30 04:30 1.9M
20260430T00Z_MSC_GDPS_SpecificHumidity_IsbL-0925_LatLon0.15_PT090H.grib2 2026-04-30 04:30 1.6M
20260430T00Z_MSC_GDPS_SpecificHumidity_IsbL-0950_LatLon0.15_PT090H.grib2 2026-04-30 04:30 1.6M
20260430T00Z_MSC_GDPS_SpecificHumidity_IsbL-0970_LatLon0.15_PT090H.grib2 2026-04-30 04:30 1.5M
20260430T00Z_MSC_GDPS_SpecificHumidity_IsbL-0985_LatLon0.15_PT090H.grib2 2026-04-30 04:30 1.5M
20260430T00Z_MSC_GDPS_SpecificHumidity_IsbL-1000_LatLon0.15_PT090H.grib2 2026-04-30 04:30 1.5M
20260430T00Z_MSC_GDPS_SpecificHumidity_IsbL-1015_LatLon0.15_PT090H.grib2 2026-04-30 04:30 1.5M
20260430T00Z_MSC_GDPS_SpecificHumidity_Sfc_LatLon0.15_PT090H.grib2 2026-04-30 04:30 669K
20260430T00Z_MSC_GDPS_Thickness_IsbL-0850to0700_LatLon0.15_PT090H.grib2 2026-04-30 04:30 470K
20260430T00Z_MSC_GDPS_Thickness_IsbL-1000to0500_LatLon0.15_PT090H.grib2 2026-04-30 04:30 370K
20260430T00Z_MSC_GDPS_Thickness_IsbL-1000to0850_LatLon0.15_PT090H.grib2 2026-04-30 04:30 490K
20260430T00Z_MSC_GDPS_TotalCloudCover_Sfc_LatLon0.15_PT090H.grib2 2026-04-30 04:30 823K
20260430T00Z_MSC_GDPS_TotalTotalsIndex_Sfc_LatLon0.15_PT090H.grib2 2026-04-30 04:30 6.2M
20260430T00Z_MSC_GDPS_UVIndex-ClearSky-Max24h_Sfc_LatLon0.15_PT090H.grib2 2026-04-30 04:51 2.2M
20260430T00Z_MSC_GDPS_UVIndex-ClearSky_Sfc_LatLon0.15_PT090H.grib2 2026-04-30 04:51 1.0M
20260430T00Z_MSC_GDPS_UVIndex-Max24h_Sfc_LatLon0.15_PT090H.grib2 2026-04-30 04:51 3.2M
20260430T00Z_MSC_GDPS_UVIndex_Sfc_LatLon0.15_PT090H.grib2 2026-04-30 04:51 1.5M
20260430T00Z_MSC_GDPS_UpwardLongwaveRadiationFlux_NTAtm_LatLon0.15_PT090H.grib2 2026-04-30 04:30 843K
20260430T00Z_MSC_GDPS_VerticalVelocity_IsbL-0200_LatLon0.15_PT090H.grib2 2026-04-30 04:30 1.2M
20260430T00Z_MSC_GDPS_VerticalVelocity_IsbL-0250_LatLon0.15_PT090H.grib2 2026-04-30 04:30 1.0M
20260430T00Z_MSC_GDPS_VerticalVelocity_IsbL-0500_LatLon0.15_PT090H.grib2 2026-04-30 04:30 1.3M
20260430T00Z_MSC_GDPS_VerticalVelocity_IsbL-0600_LatLon0.15_PT090H.grib2 2026-04-30 04:30 1.4M
20260430T00Z_MSC_GDPS_VerticalVelocity_IsbL-0700_LatLon0.15_PT090H.grib2 2026-04-30 04:30 1.4M
20260430T00Z_MSC_GDPS_VerticalVelocity_IsbL-0850_LatLon0.15_PT090H.grib2 2026-04-30 04:30 1.6M
20260430T00Z_MSC_GDPS_WindChill_Sfc_LatLon0.15_PT090H.grib2 2026-04-30 04:30 5.3M
20260430T00Z_MSC_GDPS_WindDir_AGL-10m_LatLon0.15_PT090H.grib2 2026-04-30 04:30 1.3M
20260430T00Z_MSC_GDPS_WindDir_AGL-120m_LatLon0.15_PT090H.grib2 2026-04-30 04:30 1.3M
20260430T00Z_MSC_GDPS_WindDir_AGL-40m_LatLon0.15_PT090H.grib2 2026-04-30 04:30 1.4M
20260430T00Z_MSC_GDPS_WindDir_AGL-80m_LatLon0.15_PT090H.grib2 2026-04-30 04:30 1.4M
20260430T00Z_MSC_GDPS_WindDir_IsbL-0001_LatLon0.15_PT090H.grib2 2026-04-30 04:30 685K
20260430T00Z_MSC_GDPS_WindDir_IsbL-0005_LatLon0.15_PT090H.grib2 2026-04-30 04:30 812K
20260430T00Z_MSC_GDPS_WindDir_IsbL-0010_LatLon0.15_PT090H.grib2 2026-04-30 04:30 835K
20260430T00Z_MSC_GDPS_WindDir_IsbL-0020_LatLon0.15_PT090H.grib2 2026-04-30 04:30 954K
20260430T00Z_MSC_GDPS_WindDir_IsbL-0030_LatLon0.15_PT090H.grib2 2026-04-30 04:30 945K
20260430T00Z_MSC_GDPS_WindDir_IsbL-0050_LatLon0.15_PT090H.grib2 2026-04-30 04:30 960K
20260430T00Z_MSC_GDPS_WindDir_IsbL-0100_LatLon0.15_PT090H.grib2 2026-04-30 04:30 1.0M
20260430T00Z_MSC_GDPS_WindDir_IsbL-0150_LatLon0.15_PT090H.grib2 2026-04-30 04:30 1.0M
20260430T00Z_MSC_GDPS_WindDir_IsbL-0175_LatLon0.15_PT090H.grib2 2026-04-30 04:30 1.1M
20260430T00Z_MSC_GDPS_WindDir_IsbL-0200_LatLon0.15_PT090H.grib2 2026-04-30 04:30 1.1M
20260430T00Z_MSC_GDPS_WindDir_IsbL-0225_LatLon0.15_PT090H.grib2 2026-04-30 04:30 1.1M
20260430T00Z_MSC_GDPS_WindDir_IsbL-0250_LatLon0.15_PT090H.grib2 2026-04-30 04:30 1.1M
20260430T00Z_MSC_GDPS_WindDir_IsbL-0275_LatLon0.15_PT090H.grib2 2026-04-30 04:30 1.2M
20260430T00Z_MSC_GDPS_WindDir_IsbL-0300_LatLon0.15_PT090H.grib2 2026-04-30 04:30 1.2M
20260430T00Z_MSC_GDPS_WindDir_IsbL-0350_LatLon0.15_PT090H.grib2 2026-04-30 04:30 1.2M
20260430T00Z_MSC_GDPS_WindDir_IsbL-0400_LatLon0.15_PT090H.grib2 2026-04-30 04:30 1.3M
20260430T00Z_MSC_GDPS_WindDir_IsbL-0450_LatLon0.15_PT090H.grib2 2026-04-30 04:30 1.3M
20260430T00Z_MSC_GDPS_WindDir_IsbL-0500_LatLon0.15_PT090H.grib2 2026-04-30 04:30 1.3M
20260430T00Z_MSC_GDPS_WindDir_IsbL-0550_LatLon0.15_PT090H.grib2 2026-04-30 04:30 1.4M
20260430T00Z_MSC_GDPS_WindDir_IsbL-0600_LatLon0.15_PT090H.grib2 2026-04-30 04:30 1.4M
20260430T00Z_MSC_GDPS_WindDir_IsbL-0650_LatLon0.15_PT090H.grib2 2026-04-30 04:30 1.5M
20260430T00Z_MSC_GDPS_WindDir_IsbL-0700_LatLon0.15_PT090H.grib2 2026-04-30 04:30 1.6M
20260430T00Z_MSC_GDPS_WindDir_IsbL-0750_LatLon0.15_PT090H.grib2 2026-04-30 04:30 1.7M
20260430T00Z_MSC_GDPS_WindDir_IsbL-0800_LatLon0.15_PT090H.grib2 2026-04-30 04:30 1.8M
20260430T00Z_MSC_GDPS_WindDir_IsbL-0850_LatLon0.15_PT090H.grib2 2026-04-30 04:30 1.9M
20260430T00Z_MSC_GDPS_WindDir_IsbL-0875_LatLon0.15_PT090H.grib2 2026-04-30 04:30 1.9M
20260430T00Z_MSC_GDPS_WindDir_IsbL-0900_LatLon0.15_PT090H.grib2 2026-04-30 04:30 2.0M
20260430T00Z_MSC_GDPS_WindDir_IsbL-0925_LatLon0.15_PT090H.grib2 2026-04-30 04:30 2.0M
20260430T00Z_MSC_GDPS_WindDir_IsbL-0950_LatLon0.15_PT090H.grib2 2026-04-30 04:30 2.0M
20260430T00Z_MSC_GDPS_WindDir_IsbL-0970_LatLon0.15_PT090H.grib2 2026-04-30 04:30 2.0M
20260430T00Z_MSC_GDPS_WindDir_IsbL-0985_LatLon0.15_PT090H.grib2 2026-04-30 04:30 2.0M
20260430T00Z_MSC_GDPS_WindDir_IsbL-1000_LatLon0.15_PT090H.grib2 2026-04-30 04:30 2.1M
20260430T00Z_MSC_GDPS_WindDir_IsbL-1015_LatLon0.15_PT090H.grib2 2026-04-30 04:30 2.0M
20260430T00Z_MSC_GDPS_WindGust-Max_AGL-10m_LatLon0.15_PT090H.grib2 2026-04-30 04:30 1.8M
20260430T00Z_MSC_GDPS_WindGust-Min_AGL-10m_LatLon0.15_PT090H.grib2 2026-04-30 04:30 2.1M
20260430T00Z_MSC_GDPS_WindGust_AGL-10m_LatLon0.15_PT090H.grib2 2026-04-30 04:30 2.1M
20260430T00Z_MSC_GDPS_WindSpeed_AGL-10m_LatLon0.15_PT090H.grib2 2026-04-30 04:30 1.1M
20260430T00Z_MSC_GDPS_WindSpeed_AGL-120m_LatLon0.15_PT090H.grib2 2026-04-30 04:30 1.2M
20260430T00Z_MSC_GDPS_WindSpeed_AGL-40m_LatLon0.15_PT090H.grib2 2026-04-30 04:30 1.2M
20260430T00Z_MSC_GDPS_WindSpeed_AGL-80m_LatLon0.15_PT090H.grib2 2026-04-30 04:30 1.2M
20260430T00Z_MSC_GDPS_WindSpeed_IsbL-0001_LatLon0.15_PT090H.grib2 2026-04-30 04:30 641K
20260430T00Z_MSC_GDPS_WindSpeed_IsbL-0005_LatLon0.15_PT090H.grib2 2026-04-30 04:30 693K
20260430T00Z_MSC_GDPS_WindSpeed_IsbL-0010_LatLon0.15_PT090H.grib2 2026-04-30 04:30 626K
20260430T00Z_MSC_GDPS_WindSpeed_IsbL-0020_LatLon0.15_PT090H.grib2 2026-04-30 04:30 666K
20260430T00Z_MSC_GDPS_WindSpeed_IsbL-0030_LatLon0.15_PT090H.grib2 2026-04-30 04:30 867K
20260430T00Z_MSC_GDPS_WindSpeed_IsbL-0050_LatLon0.15_PT090H.grib2 2026-04-30 04:30 909K
20260430T00Z_MSC_GDPS_WindSpeed_IsbL-0100_LatLon0.15_PT090H.grib2 2026-04-30 04:30 1.1M
20260430T00Z_MSC_GDPS_WindSpeed_IsbL-0150_LatLon0.15_PT090H.grib2 2026-04-30 04:30 952K
20260430T00Z_MSC_GDPS_WindSpeed_IsbL-0175_LatLon0.15_PT090H.grib2 2026-04-30 04:30 1.0M
20260430T00Z_MSC_GDPS_WindSpeed_IsbL-0200_LatLon0.15_PT090H.grib2 2026-04-30 04:30 1.1M
20260430T00Z_MSC_GDPS_WindSpeed_IsbL-0225_LatLon0.15_PT090H.grib2 2026-04-30 04:30 1.1M
20260430T00Z_MSC_GDPS_WindSpeed_IsbL-0250_LatLon0.15_PT090H.grib2 2026-04-30 04:30 1.1M
20260430T00Z_MSC_GDPS_WindSpeed_IsbL-0275_LatLon0.15_PT090H.grib2 2026-04-30 04:30 1.1M
20260430T00Z_MSC_GDPS_WindSpeed_IsbL-0300_LatLon0.15_PT090H.grib2 2026-04-30 04:30 1.1M
20260430T00Z_MSC_GDPS_WindSpeed_IsbL-0350_LatLon0.15_PT090H.grib2 2026-04-30 04:30 1.1M
20260430T00Z_MSC_GDPS_WindSpeed_IsbL-0400_LatLon0.15_PT090H.grib2 2026-04-30 04:30 1.1M
20260430T00Z_MSC_GDPS_WindSpeed_IsbL-0450_LatLon0.15_PT090H.grib2 2026-04-30 04:30 1.1M
20260430T00Z_MSC_GDPS_WindSpeed_IsbL-0500_LatLon0.15_PT090H.grib2 2026-04-30 04:30 1.1M
20260430T00Z_MSC_GDPS_WindSpeed_IsbL-0550_LatLon0.15_PT090H.grib2 2026-04-30 04:30 1.1M
20260430T00Z_MSC_GDPS_WindSpeed_IsbL-0600_LatLon0.15_PT090H.grib2 2026-04-30 04:30 1.4M
20260430T00Z_MSC_GDPS_WindSpeed_IsbL-0650_LatLon0.15_PT090H.grib2 2026-04-30 04:30 1.5M
20260430T00Z_MSC_GDPS_WindSpeed_IsbL-0700_LatLon0.15_PT090H.grib2 2026-04-30 04:30 1.5M
20260430T00Z_MSC_GDPS_WindSpeed_IsbL-0750_LatLon0.15_PT090H.grib2 2026-04-30 04:30 1.6M
20260430T00Z_MSC_GDPS_WindSpeed_IsbL-0800_LatLon0.15_PT090H.grib2 2026-04-30 04:30 1.4M
20260430T00Z_MSC_GDPS_WindSpeed_IsbL-0850_LatLon0.15_PT090H.grib2 2026-04-30 04:30 1.4M
20260430T00Z_MSC_GDPS_WindSpeed_IsbL-0875_LatLon0.15_PT090H.grib2 2026-04-30 04:30 1.5M
20260430T00Z_MSC_GDPS_WindSpeed_IsbL-0900_LatLon0.15_PT090H.grib2 2026-04-30 04:30 1.8M
20260430T00Z_MSC_GDPS_WindSpeed_IsbL-0925_LatLon0.15_PT090H.grib2 2026-04-30 04:30 1.8M
20260430T00Z_MSC_GDPS_WindSpeed_IsbL-0950_LatLon0.15_PT090H.grib2 2026-04-30 04:30 1.9M
20260430T00Z_MSC_GDPS_WindSpeed_IsbL-0970_LatLon0.15_PT090H.grib2 2026-04-30 04:30 1.9M
20260430T00Z_MSC_GDPS_WindSpeed_IsbL-0985_LatLon0.15_PT090H.grib2 2026-04-30 04:30 1.9M
20260430T00Z_MSC_GDPS_WindSpeed_IsbL-1000_LatLon0.15_PT090H.grib2 2026-04-30 04:30 1.9M
20260430T00Z_MSC_GDPS_WindSpeed_IsbL-1015_LatLon0.15_PT090H.grib2 2026-04-30 04:30 1.8M
20260430T00Z_MSC_GDPS_WindU_AGL-10m_LatLon0.15_PT090H.grib2 2026-04-30 04:30 1.3M
20260430T00Z_MSC_GDPS_WindU_AGL-120m_LatLon0.15_PT090H.grib2 2026-04-30 04:30 1.0M
20260430T00Z_MSC_GDPS_WindU_AGL-40m_LatLon0.15_PT090H.grib2 2026-04-30 04:30 1.0M
20260430T00Z_MSC_GDPS_WindU_AGL-80m_LatLon0.15_PT090H.grib2 2026-04-30 04:30 1.0M
20260430T00Z_MSC_GDPS_WindU_IsbL-0001_LatLon0.15_PT090H.grib2 2026-04-30 04:30 497K
20260430T00Z_MSC_GDPS_WindU_IsbL-0005_LatLon0.15_PT090H.grib2 2026-04-30 04:30 689K
20260430T00Z_MSC_GDPS_WindU_IsbL-0010_LatLon0.15_PT090H.grib2 2026-04-30 04:30 702K
20260430T00Z_MSC_GDPS_WindU_IsbL-0020_LatLon0.15_PT090H.grib2 2026-04-30 04:30 731K
20260430T00Z_MSC_GDPS_WindU_IsbL-0030_LatLon0.15_PT090H.grib2 2026-04-30 04:30 740K
20260430T00Z_MSC_GDPS_WindU_IsbL-0050_LatLon0.15_PT090H.grib2 2026-04-30 04:30 767K
20260430T00Z_MSC_GDPS_WindU_IsbL-0100_LatLon0.15_PT090H.grib2 2026-04-30 04:30 922K
20260430T00Z_MSC_GDPS_WindU_IsbL-0150_LatLon0.15_PT090H.grib2 2026-04-30 04:30 1.0M
20260430T00Z_MSC_GDPS_WindU_IsbL-0175_LatLon0.15_PT090H.grib2 2026-04-30 04:30 1.0M
20260430T00Z_MSC_GDPS_WindU_IsbL-0200_LatLon0.15_PT090H.grib2 2026-04-30 04:30 842K
20260430T00Z_MSC_GDPS_WindU_IsbL-0225_LatLon0.15_PT090H.grib2 2026-04-30 04:30 853K
20260430T00Z_MSC_GDPS_WindU_IsbL-0250_LatLon0.15_PT090H.grib2 2026-04-30 04:30 857K
20260430T00Z_MSC_GDPS_WindU_IsbL-0275_LatLon0.15_PT090H.grib2 2026-04-30 04:30 887K
20260430T00Z_MSC_GDPS_WindU_IsbL-0300_LatLon0.15_PT090H.grib2 2026-04-30 04:30 880K
20260430T00Z_MSC_GDPS_WindU_IsbL-0350_LatLon0.15_PT090H.grib2 2026-04-30 04:30 893K
20260430T00Z_MSC_GDPS_WindU_IsbL-0400_LatLon0.15_PT090H.grib2 2026-04-30 04:30 1.1M
20260430T00Z_MSC_GDPS_WindU_IsbL-0450_LatLon0.15_PT090H.grib2 2026-04-30 04:30 1.1M
20260430T00Z_MSC_GDPS_WindU_IsbL-0500_LatLon0.15_PT090H.grib2 2026-04-30 04:30 1.1M
20260430T00Z_MSC_GDPS_WindU_IsbL-0550_LatLon0.15_PT090H.grib2 2026-04-30 04:30 1.1M
20260430T00Z_MSC_GDPS_WindU_IsbL-0600_LatLon0.15_PT090H.grib2 2026-04-30 04:30 1.2M
20260430T00Z_MSC_GDPS_WindU_IsbL-0650_LatLon0.15_PT090H.grib2 2026-04-30 04:30 1.2M
20260430T00Z_MSC_GDPS_WindU_IsbL-0700_LatLon0.15_PT090H.grib2 2026-04-30 04:30 1.2M
20260430T00Z_MSC_GDPS_WindU_IsbL-0750_LatLon0.15_PT090H.grib2 2026-04-30 04:30 1.3M
20260430T00Z_MSC_GDPS_WindU_IsbL-0800_LatLon0.15_PT090H.grib2 2026-04-30 04:30 1.4M
20260430T00Z_MSC_GDPS_WindU_IsbL-0850_LatLon0.15_PT090H.grib2 2026-04-30 04:30 1.4M
20260430T00Z_MSC_GDPS_WindU_IsbL-0875_LatLon0.15_PT090H.grib2 2026-04-30 04:30 1.5M
20260430T00Z_MSC_GDPS_WindU_IsbL-0900_LatLon0.15_PT090H.grib2 2026-04-30 04:30 1.5M
20260430T00Z_MSC_GDPS_WindU_IsbL-0925_LatLon0.15_PT090H.grib2 2026-04-30 04:30 1.5M
20260430T00Z_MSC_GDPS_WindU_IsbL-0950_LatLon0.15_PT090H.grib2 2026-04-30 04:30 1.4M
20260430T00Z_MSC_GDPS_WindU_IsbL-0970_LatLon0.15_PT090H.grib2 2026-04-30 04:30 1.4M
20260430T00Z_MSC_GDPS_WindU_IsbL-0985_LatLon0.15_PT090H.grib2 2026-04-30 04:30 1.4M
20260430T00Z_MSC_GDPS_WindU_IsbL-1000_LatLon0.15_PT090H.grib2 2026-04-30 04:30 1.4M
20260430T00Z_MSC_GDPS_WindU_IsbL-1015_LatLon0.15_PT090H.grib2 2026-04-30 04:30 1.4M
20260430T00Z_MSC_GDPS_WindV_AGL-10m_LatLon0.15_PT090H.grib2 2026-04-30 04:30 1.3M
20260430T00Z_MSC_GDPS_WindV_AGL-120m_LatLon0.15_PT090H.grib2 2026-04-30 04:30 1.0M
20260430T00Z_MSC_GDPS_WindV_AGL-40m_LatLon0.15_PT090H.grib2 2026-04-30 04:30 966K
20260430T00Z_MSC_GDPS_WindV_AGL-80m_LatLon0.15_PT090H.grib2 2026-04-30 04:30 1.0M
20260430T00Z_MSC_GDPS_WindV_IsbL-0001_LatLon0.15_PT090H.grib2 2026-04-30 04:30 778K
20260430T00Z_MSC_GDPS_WindV_IsbL-0005_LatLon0.15_PT090H.grib2 2026-04-30 04:30 856K
20260430T00Z_MSC_GDPS_WindV_IsbL-0010_LatLon0.15_PT090H.grib2 2026-04-30 04:30 884K
20260430T00Z_MSC_GDPS_WindV_IsbL-0020_LatLon0.15_PT090H.grib2 2026-04-30 04:30 935K
20260430T00Z_MSC_GDPS_WindV_IsbL-0030_LatLon0.15_PT090H.grib2 2026-04-30 04:30 940K
20260430T00Z_MSC_GDPS_WindV_IsbL-0050_LatLon0.15_PT090H.grib2 2026-04-30 04:30 1.0M
20260430T00Z_MSC_GDPS_WindV_IsbL-0100_LatLon0.15_PT090H.grib2 2026-04-30 04:30 858K
20260430T00Z_MSC_GDPS_WindV_IsbL-0150_LatLon0.15_PT090H.grib2 2026-04-30 04:30 1.0M
20260430T00Z_MSC_GDPS_WindV_IsbL-0175_LatLon0.15_PT090H.grib2 2026-04-30 04:30 1.0M
20260430T00Z_MSC_GDPS_WindV_IsbL-0200_LatLon0.15_PT090H.grib2 2026-04-30 04:30 840K
20260430T00Z_MSC_GDPS_WindV_IsbL-0225_LatLon0.15_PT090H.grib2 2026-04-30 04:30 849K
20260430T00Z_MSC_GDPS_WindV_IsbL-0250_LatLon0.15_PT090H.grib2 2026-04-30 04:30 850K
20260430T00Z_MSC_GDPS_WindV_IsbL-0275_LatLon0.15_PT090H.grib2 2026-04-30 04:30 936K
20260430T00Z_MSC_GDPS_WindV_IsbL-0300_LatLon0.15_PT090H.grib2 2026-04-30 04:30 925K
20260430T00Z_MSC_GDPS_WindV_IsbL-0350_LatLon0.15_PT090H.grib2 2026-04-30 04:30 937K
20260430T00Z_MSC_GDPS_WindV_IsbL-0400_LatLon0.15_PT090H.grib2 2026-04-30 04:30 881K
20260430T00Z_MSC_GDPS_WindV_IsbL-0450_LatLon0.15_PT090H.grib2 2026-04-30 04:30 883K
20260430T00Z_MSC_GDPS_WindV_IsbL-0500_LatLon0.15_PT090H.grib2 2026-04-30 04:30 888K
20260430T00Z_MSC_GDPS_WindV_IsbL-0550_LatLon0.15_PT090H.grib2 2026-04-30 04:30 1.1M
20260430T00Z_MSC_GDPS_WindV_IsbL-0600_LatLon0.15_PT090H.grib2 2026-04-30 04:30 1.1M
20260430T00Z_MSC_GDPS_WindV_IsbL-0650_LatLon0.15_PT090H.grib2 2026-04-30 04:30 1.2M
20260430T00Z_MSC_GDPS_WindV_IsbL-0700_LatLon0.15_PT090H.grib2 2026-04-30 04:30 1.2M
20260430T00Z_MSC_GDPS_WindV_IsbL-0750_LatLon0.15_PT090H.grib2 2026-04-30 04:30 1.3M
20260430T00Z_MSC_GDPS_WindV_IsbL-0800_LatLon0.15_PT090H.grib2 2026-04-30 04:30 1.3M
20260430T00Z_MSC_GDPS_WindV_IsbL-0850_LatLon0.15_PT090H.grib2 2026-04-30 04:30 1.4M
20260430T00Z_MSC_GDPS_WindV_IsbL-0875_LatLon0.15_PT090H.grib2 2026-04-30 04:30 1.4M
20260430T00Z_MSC_GDPS_WindV_IsbL-0900_LatLon0.15_PT090H.grib2 2026-04-30 04:30 1.5M
20260430T00Z_MSC_GDPS_WindV_IsbL-0925_LatLon0.15_PT090H.grib2 2026-04-30 04:30 1.4M
20260430T00Z_MSC_GDPS_WindV_IsbL-0950_LatLon0.15_PT090H.grib2 2026-04-30 04:30 1.4M
20260430T00Z_MSC_GDPS_WindV_IsbL-0970_LatLon0.15_PT090H.grib2 2026-04-30 04:30 1.4M
20260430T00Z_MSC_GDPS_WindV_IsbL-0985_LatLon0.15_PT090H.grib2 2026-04-30 04:30 1.4M
20260430T00Z_MSC_GDPS_WindV_IsbL-1000_LatLon0.15_PT090H.grib2 2026-04-30 04:30 1.4M
20260430T00Z_MSC_GDPS_WindV_IsbL-1015_LatLon0.15_PT090H.grib2 2026-04-30 04:30 1.3M